Content
SEND FEEDBACK

Daily
Averages
Monthly
Summary
United States of America

DURANT, OKLAHOMA


Home > North America > United States > Oklahoma
Elevation: 703 feet     Latitude: 33 56N     Longitude: 096 23W

WEATHER
 
SELECT A DAY
Number of Records: 333,321;   Date Range: 3/30/01 - 11/21/14
 
SHARE

PRINT THIS DATA

[ ← Previous Day ]
WEATHER ALMANAC - JANUARY 3, 2013
[ Next Day → ]
[ °C ]   °F
Weather ElementAverageHighLow
Temperature36.5 °F48.2 °F (1:55 pm)28.4 °F (3:55 am)
Dewpoint29.5 °F32 °F (9:35 am)26.6 °F (3:55 am)
Humidity77.6 %93 % (2:55 am)50 % (1:55 pm)
Barometer30.42 in30.47 in (9:35 am)30.32 in (1:15 am)
Wind Speed5 mph11.5 mph (12:55 pm)
Weather ElementAverage
Visibility10 mi
Wind DirectionSSW (201.3 °)

Weather ElementTotal
Precipitation---
Heating Degree Days26.7 (Base 65)
Averaged from 69 records on January 3, 2013
WEATHER CONDITIONS BREAKOUT
WIND DIRECTION BREAKOUT
WEATHER BY HOUR - JANUARY 3, 2013
[ °C ]   °F
Local TimeTemperatureDewpointHumidityBarometerVisibilityWind DirectionWind SpeedGust SpeedPrecipitationEventsConditions
12:35 AM32.0 °F28.4 °F87 %30.34 in10.0 miNW (310°)5.8 mphClear
12:55 AM32.0 °F28.4 °F87 %30.33 in10.0 miNW (320°)5.8 mphClear
1:15 AM32.0 °F28.4 °F87 %30.32 in10.0 miNW (320°)5.8 mphClear
1:55 AM32.0 °F28.4 °F87 %30.34 in10.0 miNW (320°)4.6 mphClear
2:15 AM32.0 °F28.4 °F87 %30.34 in10.0 miNW (320°)4.6 mphClear
2:35 AM32.0 °F28.4 °F87 %30.34 in10.0 miNW (310°)3.5 mphClear
2:55 AM30.2 °F28.4 °F93 %30.35 in10.0 miNW (320°)6.9 mphClear
3:15 AM30.2 °F28.4 °F93 %30.36 in10.0 miNW (320°)4.6 mphClear
3:35 AM30.2 °F28.4 °F93 %30.36 in10.0 miCalmClear
3:55 AM28.4 °F26.6 °F93 %30.37 in10.0 miCalmClear
4:15 AM28.4 °F26.6 °F93 %30.37 in10.0 miNW (320°)4.6 mphClear
4:35 AM30.2 °F28.4 °F93 %30.37 in10.0 miNW (310°)4.6 mphClear
4:55 AM28.4 °F26.6 °F93 %30.37 in10.0 miWest (280°)4.6 mphClear
5:15 AM28.4 °F26.6 °F93 %30.37 in10.0 miWNW (290°)4.6 mphClear
5:35 AM30.2 °F28.4 °F93 %30.38 in10.0 miNW (310°)5.8 mphClear
5:55 AM30.2 °F28.4 °F93 %30.39 in10.0 miNW (320°)6.9 mphClear
6:15 AM28.4 °F26.6 °F93 %30.40 in10.0 miNW (320°)6.9 mphClear
6:35 AM28.4 °F26.6 °F93 %30.41 in10.0 miNW (320°)5.8 mphClear
6:55 AM28.4 °F26.6 °F93 %30.42 in10.0 miNW (320°)4.6 mphClear
7:15 AM28.4 °F26.6 °F93 %30.43 in10.0 miNW (320°)5.8 mphClear
7:35 AM28.4 °F26.6 °F93 %30.43 in10.0 miNW (310°)4.6 mphClear
7:55 AM28.4 °F26.6 °F93 %30.44 in10.0 miNW (310°)6.9 mphClear
8:15 AM30.2 °F28.4 °F93 %30.45 in10.0 miNW (320°)8.1 mphClear
8:35 AM32.0 °F28.4 °F87 %30.45 in10.0 miNW (310°)3.5 mphClear
8:55 AM32.0 °F30.2 °F93 %30.46 in10.0 miNNW (340°)4.6 mphClear
9:35 AM35.6 °F32.0 °F87 %30.47 in10.0 miNorth (350°)6.9 mphClear
9:55 AM37.4 °F32.0 °F81 %30.47 in10.0 miNorth (10°)5.8 mphClear
10:15 AM37.4 °F32.0 °F81 %30.47 in10.0 miNNW (340°)4.6 mphClear
10:35 AM39.2 °F32.0 °F75 %30.47 in10.0 miNNE (30°)8.1 mphClear
10:55 AM41.0 °F32.0 °F70 %30.47 in10.0 miNE (40°)6.9 mphClear
11:15 AM41.0 °F32.0 °F70 %30.46 in10.0 miNNE (30°)8.1 mphClear
11:35 AM42.8 °F32.0 °F66 %30.45 in10.0 miNorth (360°)8.1 mphClear
11:55 AM44.6 °F32.0 °F61 %30.45 in10.0 miNorth (350°)6.9 mphClear
12:15 PM46.4 °F32.0 °F57 %30.45 in10.0 miNE (40°)4.6 mphClear
12:35 PM44.6 °F30.2 °F57 %30.43 in10.0 miNNE (20°)5.8 mphClear
12:55 PM46.4 °F30.2 °F53 %30.42 in10.0 miNNW (330°)11.5 mphClear
1:15 PM46.4 °F30.2 °F53 %30.41 in10.0 miNorth (10°)10.4 mphClear
1:35 PM46.4 °F30.2 °F53 %30.40 in10.0 miNorth (10°)10.4 mphClear
1:55 PM48.2 °F30.2 °F50 %30.39 in10.0 miNNW (340°)10.4 mphClear
2:15 PM46.4 °F30.2 °F53 %30.40 in10.0 miNW (320°)6.9 mphClear
2:35 PM48.2 °F30.2 °F50 %30.40 in10.0 miNNW (340°)9.2 mphClear
2:55 PM46.4 °F30.2 °F53 %30.40 in10.0 miNNW (340°)6.9 mphClear
3:15 PM46.4 °F30.2 °F53 %30.40 in10.0 miNorth (350°)5.8 mphClear
3:35 PM48.2 °F32.0 °F54 %30.41 in10.0 miNorth (350°)6.9 mphClear
3:55 PM48.2 °F32.0 °F54 %30.41 in10.0 miNorth (360°)9.2 mphClear
4:15 PM48.2 °F30.2 °F50 %30.41 in10.0 miNE (40°)5.8 mphClear
4:35 PM46.4 °F30.2 °F53 %30.41 in10.0 miNNE (20°)8.1 mphClear
4:55 PM46.4 °F30.2 °F53 %30.42 in10.0 miNorth (360°)5.8 mphClear
5:15 PM44.6 °F30.2 °F57 %30.42 in10.0 miNNE (30°)4.6 mphClear
5:35 PM41.0 °F30.2 °F65 %30.42 in10.0 miNE (40°)4.6 mphClear
5:55 PM37.4 °F30.2 °F75 %30.43 in10.0 miCalmClear
6:15 PM37.4 °F30.2 °F75 %30.43 in10.0 miCalmClear
6:35 PM37.4 °F30.2 °F75 %30.44 in10.0 miCalmClear
6:55 PM35.6 °F30.2 °F81 %30.44 in10.0 miCalmClear
7:15 PM35.6 °F30.2 °F81 %30.45 in10.0 miCalmClear
7:35 PM35.6 °F28.4 °F75 %30.45 in10.0 miCalmClear
7:55 PM33.8 °F30.2 °F87 %30.45 in10.0 miCalmClear
8:15 PM33.8 °F30.2 °F87 %30.45 in10.0 miCalmClear
8:35 PM33.8 °F30.2 °F87 %30.44 in10.0 miCalmClear
8:55 PM32.0 °F30.2 °F93 %30.44 in10.0 miCalmClear
9:15 PM33.8 °F30.2 °F87 %30.45 in10.0 miCalmClear
9:35 PM33.8 °F28.4 °F81 %30.45 in10.0 miCalmClear
9:55 PM33.8 °F28.4 °F81 %30.46 in10.0 miWest (270°)4.6 mphClear
10:15 PM33.8 °F28.4 °F81 %30.47 in10.0 miWest (280°)5.8 mphMostly Cloudy
10:35 PM35.6 °F30.2 °F81 %30.45 in10.0 miCalmOvercast
10:55 PM33.8 °F30.2 °F87 %30.46 in10.0 miNW (310°)5.8 mphMostly Cloudy
11:15 PM33.8 °F30.2 °F87 %30.46 in10.0 miNNW (340°)5.8 mphOvercast
11:35 PM35.6 °F30.2 °F81 %30.47 in10.0 miNorth (350°)6.9 mphOvercast
11:55 PM35.6 °F30.2 °F81 %30.47 in10.0 miWNW (290°)6.9 mphOvercast
Hourly data recorded from KDUA, located miles away from Durant, Oklahoma







STORIES FROM OUR PARTNERS